sat.trackr.live / text

‹ back to catalog

STARLINK-35279

NORAD 66069 · 2025-235M

PAYLOAD ACTIVE UNKNOWN

§ Identity

Operator
Country
US
Launch date
2025-10-19
Launch site
AFETR
Launch vehicle
Mass (kg)
RCS (m²)

Purposes: comms

External: N2YO · Heavens-Above · Gunter

§ Orbital elements

Epoch: 2026-05-24T17:13:23.935296Z

Period
94.11 min
Inclination
53.1590°
Eccentricity
0.0001048
Mean motion
15.30183135 rev/d
Perigee alt
474.5 km
Apogee alt
476.0 km
Semi-major
6,853.4 km
B*
8.5843e-4
RAAN
251.9878°
Arg perigee
82.4886°
Mean anomaly
277.6234°
Rev number
3,456

§ Raw data

STARLINK-352791 66069U 25235M   26144.71763814  .00025138  00000+0  85843-3 0  99972 66069  53.1590 251.9878 0001048  82.4886 277.6234 15.30183135 34560

JSON: /api/v1/satellites/66069 · /tle

For live sub-satellite position, see the globe view (requires WebGL).

§ Visibility from observer

Set your observer location to see the next 7 days of passes ≥ 10°. The values pass through the URL so the page stays shareable.

No JS? Fill the form by hand. The geolocation button needs JavaScript.